KBOSKBML

Guest
Details From KBOS - Boston Logan Intl
To KBML - Berlin Muni
Flight Number -
Tags Generated
Created
Modified
Stats Distance 134 nm / 248 km
Max Altitude 0 ft / 0 m
Waypoints 2
Social Downloads 1
Likes 0
Share VATSIM

Download

Looking for another format? Having issues loading an existing format? Contact us
Advertisement - Login to hide

Notes

Generated

Route

KBOS KBML

ID Type Via Altitude Latitude Longitude Leg Dist Tot Dist Heading (true) Name
O KBOS APT - 0 ft / 0 m 42.35660˚ -71.02327˚ - 0 nm - -
O KBML APT - 0 ft / 0 m 44.58126˚ -71.17909˚ 133 nm 133 nm 357° / 357° -

Altitude Profile

Advertisement - Login to hide

KBOS

Details ICAO KBOS (BOS)
Name Boston Logan Intl
Region United States
Timezone America/New_York (UTC-4.0)
Stats Elevation 20 ft / 6 m (AMSL)
Location 42.363056° -71.006962°
Runways 6
Magnetic Variation 14.646° W

METAR

KBOS 211654Z 13007KT 10SM FEW060 FEW250 21/10 A3014 RMK AO2 SLP205 T02110100

Decode

TAF

TAF AMD KBOS 211403Z 2114/2218 VRB03KT P6SM SKC FM211500 08008KT P6SM SKC FM211800 11010KT P6SM SKC FM212200 17006KT P6SM FEW250 FM212300 21006KT P6SM FEW250 FM220600 24004KT P6SM FEW200 FM221200 21003KT P6SM BKN130 FM221600 18005KT P6SM BKN100

Decode

Departure Runways

ID Width Length Bearing (true) Bearing (mag) Surface Threshold Offset Overrun Length
04L 151 ft / 46 m 7,868 ft / 2,398 m 19.67° 34.32° Asphalt 0 ft / 0 m 0 ft / 0 m
04R 151 ft / 46 m 10,014 ft / 3,052 m 19.67° 34.32° Asphalt 1,155 ft / 352 m 0 ft / 0 m
09 151 ft / 46 m 6,985 ft / 2,129 m 76.51° 91.16° Asphalt 0 ft / 0 m 0 ft / 0 m
14 98 ft / 30 m 4,995 ft / 1,522 m 125.75° 140.40° Asphalt 0 ft / 0 m 0 ft / 0 m
15L 98 ft / 30 m 2,556 ft / 779 m 135.29° 149.94° Asphalt 0 ft / 0 m 98 ft / 30 m
15R 151 ft / 46 m 10,078 ft / 3,072 m 135.26° 149.91° Asphalt 879 ft / 268 m 200 ft / 61 m
22L 151 ft / 46 m 10,014 ft / 3,052 m 199.68° 214.33° Asphalt 1,198 ft / 365 m 200 ft / 61 m
22R 151 ft / 46 m 7,868 ft / 2,398 m 199.67° 214.32° Asphalt 814 ft / 248 m 200 ft / 61 m
27 151 ft / 46 m 6,985 ft / 2,129 m 256.53° 271.18° Asphalt 0 ft / 0 m 161 ft / 49 m
32 98 ft / 30 m 4,995 ft / 1,522 m 305.76° 320.41° Asphalt 0 ft / 0 m 801 ft / 244 m
33L 151 ft / 46 m 10,078 ft / 3,072 m 315.28° 329.93° Asphalt 0 ft / 0 m 174 ft / 53 m
33R 98 ft / 30 m 2,556 ft / 779 m 315.29° 329.94° Asphalt 0 ft / 0 m 98 ft / 30 m

KBML

Details ICAO KBML
Name BERLIN MUNI
Region United States
Timezone America/New_York (UTC-4.0)
Stats Elevation 1,161 ft / 354 m (AMSL)
Location 44.574402° -71.176370°
Runways 1
Magnetic Variation 15.184° W

METAR

KBML 211652Z AUTO 30007G18KT 220V340 10SM CLR 22/02 A3007 RMK AO2 SLP185 T02220017

Decode

TAF

Not found

Destination Runways

ID Width Length Bearing (true) Bearing (mag) Surface Threshold Offset Overrun Length
18 100 ft / 30 m 5,204 ft / 1,586 m 164.25° 179.43° Asphalt 0 ft / 0 m 0 ft / 0 m
36 100 ft / 30 m 5,204 ft / 1,586 m 344.25° 359.43° Asphalt 0 ft / 0 m 0 ft / 0 m